Flag for France Weather past 2 weeks in Marseille, France

52 °F


Feels Like: 47 °F
Forecast: 46 / 54 °F
Wind: 15 mph from West

Location: Marseille / Marignane

Current Time: Nov 25, 2015 at 1:53:42 PM

Latest Report: Nov 25, 2015 at 1:30 PM

Visibility: 10 mi

Pressure: 29.86 "Hg

Humidity: 67%

Dew point: 41 °F

Location of MarseilleLocation

Historic Weather in Marseille — Graph


Marseille temperature yesterday

Maximum temperature yesterday: 50 °F (at 2:30 PM)
Minimum temperature yesterday: 30 °F (at 3:30 AM)
Average temperature yesterday: 40 °F

Past Weeks' High & Low Weather Summary

High72 °F (Nov 18, 2:00 PM)100% (Nov 10, 11:30 PM)30.39 "Hg (Nov 10, 11:30 PM)
Low30 °F (Nov 24, 3:30 AM)31% (Nov 15, 3:00 PM)29.50 "Hg (Nov 21, 6:30 AM)
Average54 °F74%30.11 "Hg
* Reported Nov 10 12:00 Noon — Nov 25 12:30 PM, Marseille, Weather by CustomWeather, © 2015

Note: Actual official high and low records may vary slightly from our data, if they occured in-between our weather recording intervals... More about our weather records


Marseille weather history for previous 24 hours

Time TempWeatherWind HumidityBarometerVisibility
12:30 PM
Wed, Nov 25
50 °FSunny.12 mph67%29.89 "Hg10 mi
12:00 PM48 °FSunny.12 mph71%29.89 "Hg10 mi
11:30 AM46 °FSunny.9 mph71%29.89 "Hg10 mi
11:00 AM45 °FSunny.9 mph71%29.92 "Hg10 mi
10:30 AM45 °FSunny.8 mph71%29.92 "Hg10 mi
10:00 AM45 °FSunny.7 mph71%29.92 "Hg10 mi
9:30 AM43 °FPassing clouds.6 mph76%29.92 "HgN/A
9:00 AM43 °FSunny.6 mph76%29.95 "Hg10 mi
8:30 AM41 °FPassing clouds.3 mph87%29.95 "HgN/A
8:00 AM41 °FSunny.2 mph81%29.95 "Hg10 mi
7:30 AM39 °FClear.3 mph93%29.95 "Hg10 mi
7:00 AM39 °FClear.3 mph87%29.95 "Hg10 mi
6:30 AM41 °FClear.7 mph81%29.98 "Hg10 mi
6:00 AM39 °FClear.No wind87%29.98 "Hg10 mi
5:30 AM39 °FClear.6 mph81%29.98 "Hg10 mi
5:00 AM39 °FLight rain. Partly cloudy.5 mph87%30.01 "HgN/A
4:30 AM39 °FLight rain. Partly cloudy.5 mph87%30.01 "HgN/A
4:00 AM39 °FLight rain. Passing clouds.3 mph87%30.04 "HgN/A
3:30 AM39 °FMostly cloudy.2 mph81%30.04 "HgN/A
3:00 AM39 °FClear.3 mph81%30.04 "Hg10 mi
2:30 AM37 °FLight rain. Clear.No wind87%30.04 "HgN/A
2:00 AM37 °FClear.2 mph81%30.04 "Hg10 mi
1:30 AM37 °FClear.2 mph81%30.07 "Hg10 mi
12:30 AM39 °FClear.No wind70%30.09 "Hg10 mi
11:30 PM
Tue, Nov 24
37 °FClear.3 mph75%30.09 "Hg10 mi
11:00 PM37 °FClear.3 mph75%30.12 "Hg10 mi
10:30 PM37 °FPassing clouds.3 mph70%30.12 "HgN/A
10:00 PM39 °FClear.2 mph65%30.12 "Hg10 mi
9:30 PM39 °FClear.5 mph61%30.12 "Hg10 mi
9:00 PM41 °FClear.3 mph61%30.15 "Hg10 mi
8:30 PM43 °FClear.9 mph57%30.15 "Hg10 mi
8:00 PM43 °FClear.7 mph53%30.15 "Hg10 mi
7:30 PM43 °FClear.8 mph53%30.15 "Hg10 mi
7:00 PM45 °FClear.9 mph46%30.15 "Hg10 mi
6:30 PM45 °FClear.9 mph49%30.15 "Hg10 mi
6:00 PM45 °FClear.9 mph57%30.15 "Hg10 mi
5:30 PM46 °FClear.10 mph53%30.15 "Hg10 mi
5:00 PM46 °FSunny.8 mph53%30.15 "Hg10 mi
4:30 PM48 °FSunny.10 mph50%30.15 "Hg10 mi
4:00 PM50 °FSunny.8 mph43%30.15 "Hg10 mi
3:30 PM50 °FSunny.9 mph47%30.18 "Hg10 mi
3:00 PM50 °FPassing clouds.7 mph47%30.18 "HgN/A
2:30 PM50 °FSunny.7 mph47%30.18 "Hg10 mi
2:00 PM48 °FPassing clouds.7 mph46%30.18 "HgN/A
1:30 PM48 °FSunny.9 mph46%30.18 "Hg10 mi
1:00 PM48 °FSunny.12 mph50%30.18 "Hg10 mi
Weather by CustomWeather, © 2015

See weather overviewHow to use our weather pages